RH
6 4 2 2 2 3 3 3 3 3 3 4 5 7 8 8 8 8 7 6 6 6 7 7 7 8 8 9 10 12 15 19 25 28 27 24 23 24 24 25 25 23 22 19 16 13 10 10 8 8 8 7 7 6 7 8 11 13 19 36 38 36 50 56 61 75 78 76 75 72 63 52 44 42 42 38 57 72 50 34 40 58 76 81 77 68 66 68
5 3 2 2 3 3 3 3 3 3 3 3 4 6 7 8 8 8 7 7 7 7 7 8 8 9 10 12 14 17 22 26 28 28 26 24 24 26 26 25 24 22 21 19 16 13 10 10 8 9 8 7 7 6 12 19 23 25 28 35 35 41 53 55 64 79 83 82 75 68 59 50 45 43 44 43 57 68 53 47 61 77 85 82 72 61 61 65
4 3 2 3 3 3 3 2 3 3 3 3 4 5 6 7 7 7 7 7 7 8 9 9 10 11 14 16 20 24 27 28 27 27 26 25 26 26 25 24 22 21 21 20 17 14 12 11 10 10 8 7 6 7 23 36 38 36 37 42 42 49 57 56 69 84 87 88 80 72 66 55 50 45 43 50 66 78 70 67 76 78 80 78 70 65 64 60
4 3 3 3 3 3 3 3 3 3 3 3 3 4 5 6 6 7 7 8 8 9 9 11 14 17 19 22 26 27 28 28 27 28 28 27 27 26 24 23 22 21 21 20 18 16 14 12 11 11 8 8 6 8 26 38 39 40 42 45 44 53 64 61 71 83 84 86 80 73 67 54 51 45 41 52 66 82 92 90 82 74 82 88 78 70 63 51
3 3 3 3 3 4 3 3 3 3 3 3 3 3 4 5 6 7 7 8 9 11 12 15 19 23 25 26 27 28 29 30 29 29 29 27 26 25 23 22 21 21 21 20 19 18 17 15 12 12 10 8 8 8 20 31 31 33 38 39 40 52 62 64 73 81 82 84 80 72 63 49 46 44 47 57 52 57 78 86 86 82 83 85 77 67 55 44
3 3 3 3 3 4 3 3 3 3 3 3 3 4 5 5 6 7 9 12 15 17 20 23 25 27 27 27 28 30 32 32 30 30 29 28 26 25 23 22 21 21 21 20 18 18 18 17 13 12 11 9 10 7 16 31 30 31 38 36 40 47 48 60 72 71 75 79 74 68 62 51 47 44 47 57 47 43 58 72 89 89 78 75 73 65 50 42
3 3 3 3 3 3 3 3 3 3 3 4 4 4 5 6 6 8 11 17 21 24 26 28 28 27 27 29 31 32 33 32 31 31 29 29 27 25 24 22 22 21 20 19 18 19 19 18 15 13 12 10 11 7 13 29 28 32 42 39 45 48 40 51 59 54 61 68 63 55 52 53 55 51 48 51 51 47 51 64 81 88 82 74 68 63 52 46
3 3 3 3 3 3 3 3 3 4 4 4 5 5 6 6 8 10 14 19 23 25 27 28 28 27 29 32 32 32 33 32 32 31 29 29 27 26 25 23 23 21 20 19 18 19 18 18 16 14 13 12 12 10 11 18 18 25 37 35 40 44 33 33 36 34 41 49 53 50 47 53 55 55 51 47 48 47 51 59 63 72 76 67 60 57 51 49
4 3 2 2 3 3 4 3 4 4 4 5 5 6 7 9 12 15 19 21 23 24 25 27 27 28 30 31 32 34 33 32 32 31 30 30 28 28 28 26 25 23 21 20 20 20 19 18 17 15 15 14 13 12 11 12 12 18 23 21 25 28 21 17 18 17 20 23 30 38 45 53 53 52 53 47 41 42 51 54 48 53 63 60 54 49 46 48
4 3 2 2 2 3 4 4 4 4 4 5 6 7 9 13 18 23 25 25 25 25 25 26 27 28 29 29 34 34 31 31 31 31 31 30 30 31 31 30 30 30 27 22 23 25 22 20 20 18 17 16 15 14 12 12 13 13 13 13 16 19 19 20 18 14 12 10 11 19 32 47 51 51 52 47 44 42 44 42 37 42 58 61 51 47 49 49
5 4 2 2 2 3 4 4 4 4 5 5 7 8 10 14 19 23 25 26 26 26 26 26 27 27 26 28 33 32 30 31 30 31 31 30 30 30 31 33 34 35 35 31 27 28 26 24 24 23 22 19 17 15 13 14 16 17 17 16 16 19 21 21 19 15 11 11 10 9 18 33 47 54 48 46 54 50 38 31 32 42 57 62 53 50 55 52
6 5 3 2 2 2 3 4 4 4 5 6 7 8 11 13 16 19 21 23 25 26 26 26 26 26 24 27 31 30 30 30 29 31 32 32 32 31 33 34 34 35 38 39 35 32 30 27 27 26 26 24 21 19 18 19 20 21 20 20 25 31 30 25 22 20 16 16 16 10 13 22 35 54 50 44 56 54 40 32 34 42 51 59 56 50 56 58
7 6 4 3 2 2 3 3 4 5 5 6 7 9 10 12 14 17 19 22 24 25 26 26 26 25 24 26 29 29 32 32 31 33 32 33 33 33 33 31 32 34 37 39 35 33 31 28 27 28 29 30 28 24 23 24 23 22 20 25 39 45 47 45 38 34 29 24 22 17 17 15 26 57 61 50 54 54 53 52 44 38 41 46 46 41 46 59
8 7 5 4 3 2 2 3 4 5 5 6 7 9 10 12 14 16 19 21 22 24 24 25 25 25 24 24 26 28 32 33 33 35 36 36 36 35 30 27 30 32 32 32 30 30 30 27 26 27 30 33 33 31 28 26 25 25 23 29 44 50 54 53 43 43 42 36 36 33 27 23 32 58 65 57 57 58 67 77 62 47 48 45 38 34 36 49
9 8 7 5 4 3 3 2 3 4 5 6 7 9 10 12 14 16 18 19 20 21 22 22 23 24 24 22 23 25 29 31 31 34 38 41 40 36 30 27 29 30 28 28 28 29 29 28 27 27 28 29 32 32 30 26 24 25 28 33 40 47 51 49 43 45 45 45 50 47 38 39 49 60 63 60 60 62 73 84 74 65 65 56 44 40 39 43
9 9 8 7 5 4 3 3 3 3 4 5 6 8 9 11 14 15 16 17 18 19 20 20 21 22 21 20 21 22 26 30 32 32 34 35 35 33 31 31 32 31 30 29 27 28 31 30 25 26 28 27 28 30 29 28 25 26 32 33 33 42 51 50 47 45 46 51 55 52 46 51 60 62 62 63 67 70 77 81 78 80 79 63 51 51 47 43
9 10 9 8 7 5 5 4 3 3 3 4 5 6 7 9 11 13 14 15 17 18 19 20 20 20 20 20 19 20 23 27 31 31 27 26 27 28 29 31 33 33 30 28 27 28 34 36 29 31 37 37 34 31 27 28 28 26 29 32 32 44 56 55 54 52 53 57 58 57 54 55 62 64 63 66 70 71 78 85 86 88 85 66 55 61 58 47
8 10 10 9 9 8 6 5 5 4 4 4 4 5 5 7 8 10 11 12 14 16 18 19 19 18 20 20 19 19 21 23 24 23 21 22 22 21 22 24 29 33 32 28 28 29 36 42 35 32 42 47 43 38 35 39 44 41 35 36 43 60 68 60 59 61 59 58 62 62 56 55 61 64 65 65 64 63 70 86 96 95 83 64 57 63 62 54
7 9 10 10 10 10 9 8 6 6 6 5 5 5 5 5 6 8 8 8 10 11 13 15 16 16 16 18 18 16 17 18 19 18 19 19 18 18 20 21 22 31 38 35 33 35 43 52 48 46 55 59 56 56 58 60 63 59 52 46 50 70 80 71 65 65 63 61 62 64 58 55 61 65 69 70 69 70 72 82 95 95 81 65 58 57 55 53
8 8 10 11 11 11 11 11 9 8 8 7 7 6 6 6 6 7 7 7 8 8 9 10 11 12 13 15 15 14 13 13 15 16 18 18 17 20 25 27 23 26 34 32 28 28 35 45 46 48 53 49 51 61 67 71 71 68 65 59 56 63 75 83 79 66 63 64 62 65 61 54 61 70 74 74 74 78 82 88 90 86 78 63 52 51 54 59
10 7 8 10 11 12 13 13 12 10 9 9 9 9 8 8 8 8 8 8 9 9 10 10 11 12 12 13 13 14 14 14 15 15 17 19 21 27 33 33 23 20 23 22 16 13 17 24 27 31 31 23 29 39 43 50 55 59 65 67 69 70 71 82 86 72 68 69 64 65 62 53 57 68 71 67 66 69 76 81 78 75 74 69 62 59 64 73
14 9 7 9 10 12 13 15 15 13 12 11 11 11 11 11 11 11 10 10 10 11 11 11 12 13 13 14 15 16 15 15 16 17 20 23 24 31 35 28 19 18 19 18 16 11 13 21 23 24 21 14 17 19 19 22 24 31 41 45 56 71 77 82 86 81 77 72 65 64 62 56 55 60 62 59 57 60 64 66 65 68 71 70 64 57 59 68
19 13 9 7 9 11 12 15 16 16 15 13 13 13 13 14 15 15 15 14 13 13 14 12 13 14 14 16 17 18 18 19 20 20 22 24 25 31 32 25 22 24 22 20 20 15 16 22 23 22 19 16 16 15 15 16 13 15 20 20 25 45 66 81 87 83 80 75 70 68 62 58 55 54 56 55 55 58 59 59 57 60 65 61 56 57 63 62
22 18 13 8 8 9 11 13 15 17 17 15 14 13 13 14 15 17 18 18 18 18 18 18 18 17 16 17 18 19 21 23 25 26 28 30 31 34 34 30 30 31 29 26 23 20 18 19 22 22 18 15 17 21 23 25 25 26 26 22 23 34 50 69 83 82 78 75 73 72 67 61 57 52 52 53 54 55 57 59 57 57 64 65 59 62 70 65
22 22 18 12 8 8 9 10 12 15 17 17 16 15 14 16 16 18 19 20 20 20 22 23 23 23 22 20 21 21 22 23 24 26 28 30 32 32 32 33 33 34 36 35 32 30 24 18 21 23 20 16 20 29 34 36 38 39 38 29 27 39 51 66 80 85 84 79 75 76 74 68 61 54 53 53 54 56 58 63 67 68 72 74 67 64 68 71
22 23 23 18 12 9 8 9 10 11 15 18 18 16 16 18 18 20 21 21 22 24 24 24 24 25 24 23 24 24 25 26 26 25 23 24 25 26 27 31 35 35 35 37 37 31 23 19 23 26 27 22 23 33 39 40 43 44 42 34 26 30 43 61 75 85 93 88 76 73 72 70 66 62 60 56 55 57 60 65 71 76 79 81 85 87 84 79
22 23 24 23 19 13 9 8 9 9 12 17 20 19 17 17 19 20 21 21 23 26 27 26 25 24 22 21 23 24 25 29 32 32 28 23 21 23 23 25 32 35 32 33 33 26 18 18 23 27 27 19 21 36 41 39 43 46 46 43 36 30 33 50 69 82 92 88 75 67 67 70 69 66 64 60 56 57 61 66 72 78 80 84 92 92 83 76
21 24 24 25 24 19 13 9 9 9 10 12 17 20 18 17 18 19 21 22 23 26 29 28 27 28 26 23 23 24 27 30 33 38 40 33 24 23 23 21 24 27 27 28 30 26 19 18 20 22 22 15 18 35 41 40 41 41 44 45 44 42 38 44 64 83 91 84 72 64 65 71 72 68 65 62 61 62 66 71 78 84 83 83 85 81 74 72
20 24 25 25 26 24 18 12 9 9 9 9 13 17 17 17 18 18 20 23 22 24 29 30 29 30 27 25 26 28 30 32 35 41 43 36 29 26 27 25 22 22 23 24 27 28 22 19 18 17 19 15 17 32 41 42 40 37 43 47 46 52 50 42 49 74 90 80 65 63 66 70 75 73 67 63 64 67 71 76 81 83 81 78 76 74 71 68
19 24 25 25 25 26 23 16 11 9 9 9 10 13 15 15 16 16 18 21 20 20 28 34 36 37 32 27 29 32 35 36 38 41 39 33 32 32 31 29 26 24 25 23 23 27 25 23 20 16 17 14 15 30 40 40 38 36 42 48 49 56 59 44 35 57 84 77 60 63 68 67 70 70 62 60 63 65 66 72 77 76 74 73 71 69 67 65
18 23 24 25 25 26 25 20 13 10 10 10 11 13 14 14 15 14 16 20 20 20 25 31 35 38 37 33 30 33 39 40 40 41 40 35 34 37 35 30 25 24 26 24 21 24 26 25 22 16 15 14 13 25 36 38 37 34 38 48 51 51 48 38 36 53 74 71 60 66 71 68 67 65 61 65 71 72 69 70 73 75 76 78 77 74 71 68
16 21 23 24 26 26 26 22 15 11 10 11 13 15 16 17 16 13 14 17 19 21 25 26 26 31 37 37 35 37 42 43 42 43 44 40 38 40 39 34 29 27 27 26 23 22 24 25 24 17 14 15 14 19 29 36 38 35 37 49 56 50 39 33 38 54 69 67 58 61 66 67 67 63 64 73 78 77 73 68 69 73 76 78 78 78 75 69
14 20 23 24 26 26 26 24 18 12 11 13 15 16 17 17 16 13 14 16 18 22 27 26 24 30 38 41 40 41 42 44 44 44 46 45 43 44 44 40 37 33 28 26 25 23 23 25 25 18 14 13 11 15 23 31 38 39 36 40 48 51 46 37 34 43 58 67 62 59 60 61 62 60 59 65 68 67 64 59 57 58 62 70 77 82 83 78
14 20 23 24 25 26 26 24 19 13 12 13 15 16 14 14 14 14 16 18 20 24 27 29 30 37 43 44 43 43 43 45 47 46 46 47 47 47 46 43 42 38 31 26 26 24 24 27 26 19 15 14 10 13 17 22 31 38 36 32 35 43 47 43 39 38 44 55 62 64 64 63 62 59 57 56 55 53 51 49 49 50 56 67 76 80 81 79
13 19 23 23 24 25 26 25 21 16 14 14 15 14 14 14 16 18 21 23 25 27 30 35 40 44 46 44 43 42 41 43 44 45 44 44 47 48 46 45 43 40 34 28 27 25 24 28 29 23 20 17 14 13 13 17 25 32 35 34 32 38 43 42 45 46 42 44 50 53 55 57 56 54 51 48 44 44 46 49 54 58 61 63 66 67 65 62
12 18 22 22 23 25 25 25 23 19 17 16 15 15 15 17 19 23 26 28 31 34 37 41 44 45 45 43 44 43 41 40 39 40 40 39 41 43 44 44 43 41 36 31 29 26 25 28 31 30 26 21 19 16 13 15 20 23 31 37 35 34 36 38 41 44 43 46 50 49 47 51 52 50 48 45 44 46 51 54 55 54 53 51 53 55 52 47
12 18 22 22 22 24 25 25 24 21 19 17 17 18 18 21 24 27 30 33 37 41 43 44 45 44 44 44 43 42 40 37 35 35 36 37 36 38 41 42 41 40 37 34 32 29 27 28 31 32 29 23 22 19 14 14 16 18 25 33 36 34 32 33 37 40 39 41 47 47 45 48 49 48 49 51 52 54 54 55 51 46 44 42 41 41 41 39
12 17 22 22 22 23 24 25 24 22 20 19 19 21 22 24 27 30 33 37 41 44 44 45 45 45 45 43 42 40 37 35 34 33 34 36 35 35 38 40 39 38 36 35 33 30 30 30 31 33 29 24 23 21 18 15 15 17 19 22 28 33 34 34 36 39 39 39 42 43 42 42 40 41 48 53 53 52 50 50 49 45 41 39 36 34 34 33
12 16 21 22 22 23 24 25 25 23 22 22 22 24 25 27 30 33 36 39 42 45 45 44 44 44 43 41 40 37 33 32 32 31 32 34 35 34 35 38 38 36 34 34 33 31 32 32 32 32 29 25 24 23 20 17 15 16 17 18 19 23 31 34 31 29 32 36 40 41 39 35 32 34 40 44 45 46 45 42 37 33 31 31 31 28 27 26
13 15 20 22 21 23 24 25 25 24 24 24 24 25 27 29 31 33 36 39 41 43 44 42 42 41 39 37 37 34 31 30 30 30 31 32 34 34 33 35 37 35 34 34 32 31 32 33 34 33 31 27 26 26 23 19 15 12 12 17 19 19 24 28 23 20 22 25 27 30 30 26 22 21 23 27 32 35 33 27 21 18 19 21 22 21 20 19
13 16 20 22 21 22 24 25 25 25 25 25 25 27 28 29 31 33 36 38 40 41 42 41 40 39 34 31 32 32 31 29 28 29 30 30 31 32 31 32 34 34 34 33 33 32 32 33 35 35 33 31 29 29 27 24 19 13 10 15 17 17 19 20 20 19 18 18 20 21 23 23 20 15 12 16 21 21 18 16 13 11 11 11 11 11 12 12
13 15 19 22 21 21 23 24 25 25 25 25 26 27 28 28 30 32 34 36 38 39 39 39 38 36 32 27 26 29 30 29 28 28 28 29 29 29 28 29 30 31 31 32 33 33 31 32 34 35 35 34 31 29 29 29 26 19 15 16 18 17 16 16 19 20 18 17 19 18 18 20 21 18 14 14 18 19 18 16 12 9 7 6 6 6 6 6
13 15 18 20 21 21 21 23 25 25 25 26 27 27 27 27 29 31 33 34 36 36 35 35 35 32 29 26 24 24 26 27 28 28 28 28 27 28 28 28 28 28 29 31 32 32 31 29 31 35 36 34 31 29 30 31 31 27 23 21 20 19 17 15 16 19 18 17 18 18 15 15 18 19 17 13 13 16 16 13 9 7 6 5 6 6 6 5
14 16 17 20 21 21 20 20 22 24 25 26 26 25 25 26 27 29 30 30 31 31 30 29 28 27 25 24 23 22 22 24 26 27 28 28 27 27 27 27 28 27 28 29 28 30 32 30 30 35 37 36 33 32 33 33 32 33 31 28 26 26 24 20 17 17 17 16 19 20 17 16 19 21 19 16 12 10 9 8 7 8 9 10 10 9 7 6
14 15 16 19 21 22 20 18 18 19 22 23 22 22 22 23 24 25 25 25 24 24 23 22 22 22 21 21 22 22 20 20 22 25 27 28 28 27 28 28 28 28 28 28 26 28 31 31 30 33 35 36 37 36 36 37 36 35 36 35 34 34 32 29 25 24 23 22 23 24 22 24 25 23 23 24 22 18 17 17 16 17 18 19 18 15 12 9
14 15 16 18 21 22 21 19 17 16 17 18 17 18 18 19 19 19 19 19 18 18 19 19 19 19 20 20 20 20 19 18 19 21 23 27 28 29 29 28 28 28 28 27 26 27 30 31 31 32 33 34 36 37 36 37 37 36 37 37 38 39 38 35 33 31 31 31 30 30 31 32 32 30 31 32 31 30 29 28 27 27 28 26 22 18 16 14
16 16 18 20 22 22 22 20 18 16 15 15 15 15 16 16 17 17 17 17 17 17 18 18 19 18 18 18 18 17 17 17 17 18 19 23 26 28 30 30 29 29 27 27 27 27 28 30 31 33 34 33 33 34 35 36 36 37 38 39 39 41 41 40 38 36 36 37 34 34 36 36 36 37 36 35 34 34 34 35 36 37 36 35 33 29 25 24
17 18 19 20 22 23 23 21 20 19 17 16 16 16 16 16 16 17 17 17 18 18 18 18 18 18 17 17 17 16 16 16 16 16 16 18 21 25 28 31 32 31 29 28 27 26 26 29 30 30 32 33 32 34 36 36 36 38 39 39 39 39 40 40 40 40 41 40 37 35 34 33 34 35 32 30 32 35 37 40 43 40 35 34 36 40 43 42
17 18 19 20 21 22 22 22 22 22 20 20 19 18 18 18 18 19 19 19 19 19 19 19 18 18 18 17 17 17 17 16 16 15 15 15 16 19 24 29 32 33 32 29 26 25 27 28 29 29 31 32 33 35 36 37 37 38 40 40 38 37 37 37 37 38 39 39 35 31 31 32 32 28 23 20 24 29 32 35 37 34 29 27 28 35 44 48
17 18 19 19 20 21 22 23 24 23 22 22 22 21 21 20 20 20 20 20 21 20 20 21 20 20 19 19 18 18 17 16 16 15 15 15 15 16 18 24 29 32 34 32 28 26 27 28 29 29 30 32 35 36 37 37 37 37 40 40 39 37 36 35 34 34 35 35 31 27 28 31 29 23 17 14 15 18 19 20 21 20 18 17 17 22 31 37
16 17 18 19 20 21 21 22 24 24 24 24 23 22 23 22 22 22 22 22 23 23 22 22 22 21 20 19 19 18 17 16 16 15 15 15 16 16 16 20 25 30 34 35 31 27 27 27 28 29 28 29 33 35 37 37 37 38 39 40 40 39 36 32 31 31 30 28 26 24 24 23 21 17 14 11 11 11 11 12 12 11 9 9 11 14 16 19
14 17 18 19 20 20 20 22 22 23 23 23 23 23 23 23 23 23 23 24 24 23 23 23 23 22 21 20 19 18 16 15 15 15 15 15 16 17 17 18 21 27 34 37 33 28 27 27 27 27 27 27 30 33 35 35 36 37 38 37 37 37 34 30 28 27 24 21 20 19 17 15 13 12 10 9 9 9 9 10 11 10 8 7 9 9 9 11
Wind_Speed
30 34 35 35 34 34 34 34 34 33 32 31 28 24 21 19 17 16 13 11 9 7 6 5 4 5 6 8 10 12 13 15 15 15 14 14 14 14 14 13 13 13 13 13 13 13 13 12 13 13 12 11 11 11 9 8 11 15 23 28 27 23 18 14 13 14 10 1 7 11 16 20 22 22 22 23 23 20 17 14 11 8 6 6 5 7 10 10
31 34 35 34 34 34 34 33 33 32 31 30 27 24 21 18 17 15 13 11 9 8 7 7 7 8 9 11 13 14 16 16 16 15 15 14 15 15 14 13 12 13 13 12 11 11 12 12 12 12 12 12 13 14 14 13 16 21 27 28 25 22 18 15 15 15 8 4 12 16 20 24 24 24 23 21 19 16 13 10 8 7 5 5 5 7 9 9
31 34 35 34 33 34 34 33 32 32 30 29 27 24 21 19 17 15 14 12 11 11 11 11 12 12 13 14 15 17 18 17 17 16 16 15 16 15 14 14 13 13 13 12 11 10 10 10 9 10 11 12 14 18 21 22 22 23 24 24 23 22 18 15 16 15 8 4 13 19 23 25 23 23 20 14 11 8 8 9 8 8 6 4 4 5 7 7
31 34 35 34 33 34 34 32 31 31 30 28 26 24 22 19 17 16 15 15 14 14 14 15 16 16 16 17 18 18 19 18 18 18 17 16 16 16 15 14 14 14 14 13 12 11 10 8 7 8 9 12 13 18 25 25 23 22 21 21 21 20 16 13 13 13 8 6 10 15 20 22 18 15 13 10 8 5 4 8 9 9 4 0 1 3 4 4
31 34 35 34 33 34 34 31 30 30 30 28 25 23 22 19 18 17 17 17 17 17 17 18 19 19 19 19 19 20 19 19 19 19 18 18 17 16 15 15 15 15 14 14 14 13 10 6 8 9 10 11 12 18 24 24 21 20 20 17 17 18 16 12 10 12 11 10 12 14 17 19 15 11 10 8 8 7 7 6 6 7 3 2 1 1 2 4
31 34 35 34 33 33 33 31 29 29 29 29 26 24 22 20 18 18 20 21 21 21 20 20 20 20 20 20 20 20 20 20 20 20 19 18 17 16 16 16 15 15 14 14 15 15 10 6 10 12 12 13 15 19 23 24 21 18 16 14 13 12 12 12 11 13 16 16 17 19 20 22 19 17 15 9 7 6 6 4 3 5 1 4 3 2 3 4
31 34 35 34 33 33 32 30 28 28 29 29 27 25 23 21 19 19 21 23 24 23 22 21 21 21 21 21 21 21 21 20 20 20 19 18 17 16 16 16 15 14 13 13 15 14 11 9 11 12 13 15 17 19 23 25 22 18 17 14 11 10 10 11 12 14 18 19 21 22 22 23 21 22 17 9 8 7 5 3 2 4 4 5 4 4 3 3
31 34 35 35 33 32 32 30 28 27 28 29 28 26 24 23 22 21 22 23 24 24 23 22 21 21 21 22 21 21 21 20 20 19 19 18 17 16 16 15 14 14 12 12 13 13 11 9 9 10 11 13 16 17 21 23 20 19 20 16 12 13 12 9 7 7 12 17 22 24 24 22 21 23 17 10 10 7 4 3 4 7 7 4 3 3 2 1
30 33 35 35 34 33 32 30 28 27 27 28 28 26 25 24 24 23 23 23 24 24 23 22 22 22 22 22 21 21 20 19 19 19 18 17 16 16 14 14 12 11 10 10 11 10 7 5 4 7 8 10 12 14 17 19 19 19 19 17 15 15 12 7 5 5 6 9 14 20 24 24 24 23 16 13 13 8 4 2 4 5 4 4 3 2 2 1
29 32 34 35 35 34 32 30 28 27 27 27 27 27 25 25 25 25 24 23 23 23 23 23 22 22 22 22 21 20 19 19 19 18 17 16 17 16 15 13 12 10 8 7 9 8 5 5 3 3 4 5 7 11 15 16 14 14 14 13 12 11 9 8 9 8 6 7 10 14 20 24 25 22 17 15 12 9 7 4 5 4 4 4 5 3 1 0
28 30 33 35 36 36 33 31 28 27 26 26 27 27 26 26 27 27 26 26 24 24 24 24 23 22 22 23 21 19 18 17 18 18 17 16 16 16 16 15 13 11 9 7 6 6 5 6 5 3 2 1 3 6 10 9 7 8 8 7 6 4 5 7 7 7 7 7 9 11 15 22 24 19 18 16 10 11 9 5 6 6 4 4 4 4 1 1
27 29 31 33 35 36 35 32 30 28 27 26 26 27 27 27 27 28 28 28 26 25 24 23 23 22 22 22 21 19 18 16 17 17 16 16 14 15 16 15 14 13 12 8 5 5 5 7 7 6 6 5 3 4 4 6 6 7 6 5 5 6 3 2 2 4 6 5 6 8 12 20 20 16 19 17 10 12 11 8 8 6 6 4 3 4 4 5
26 27 29 31 33 35 35 34 31 29 28 27 27 27 26 26 27 27 28 28 27 26 23 23 22 22 22 22 20 19 18 17 17 17 16 16 15 14 14 15 15 13 12 10 8 8 7 8 8 8 8 6 4 4 5 7 8 8 8 9 12 11 7 5 4 3 4 4 4 4 7 12 15 15 18 15 9 11 13 13 10 7 9 8 7 9 7 6
24 26 27 29 31 33 35 34 33 31 30 29 28 28 27 27 27 27 27 27 27 26 23 22 22 21 21 21 20 19 18 17 18 18 17 15 13 11 11 13 14 12 12 11 10 10 8 7 8 9 9 7 5 5 8 9 10 9 9 13 15 10 7 5 5 4 3 4 9 7 1 7 14 14 14 11 8 11 14 13 11 10 12 13 13 12 9 7
23 24 25 27 29 31 32 34 34 33 31 30 30 29 28 28 27 27 27 26 26 25 24 22 21 20 20 20 20 20 18 16 17 18 17 15 12 10 10 12 12 10 10 9 9 9 7 6 6 7 8 7 7 8 10 11 12 11 12 16 15 12 10 7 5 5 3 6 12 10 4 7 14 14 13 12 9 11 13 12 10 13 15 16 15 12 10 9
21 23 24 25 26 28 30 31 32 33 33 32 31 31 30 28 28 27 26 26 25 24 23 22 20 19 20 19 19 20 19 17 15 15 16 16 15 13 11 12 11 9 8 7 7 7 6 5 4 4 5 6 7 8 10 11 12 13 13 18 18 14 11 8 6 8 7 5 8 8 6 7 12 12 12 13 13 12 14 13 11 15 17 17 17 13 10 9
20 21 22 23 24 26 27 28 30 31 32 32 31 31 31 29 28 28 28 26 25 24 21 20 19 19 19 18 17 19 19 17 14 12 13 14 14 14 12 12 9 7 6 5 5 5 4 3 1 2 4 5 7 8 11 12 13 14 14 18 17 12 9 9 10 11 11 4 3 5 5 10 12 11 10 12 15 14 14 14 13 14 16 17 17 12 9 8
17 19 20 21 22 23 24 26 27 28 29 30 31 30 30 30 28 27 28 28 26 23 21 19 18 19 18 16 15 17 17 16 14 12 11 11 12 12 11 11 9 7 5 4 3 3 3 2 2 3 5 8 10 11 13 12 12 14 13 15 14 9 8 11 12 12 15 11 6 8 11 12 15 14 12 16 16 14 18 18 14 14 15 17 17 14 13 13
15 17 18 19 20 21 22 23 24 26 27 27 28 29 29 29 28 26 26 27 26 24 22 19 18 18 17 14 14 15 16 15 14 12 10 8 10 10 8 8 9 9 7 5 4 4 2 2 4 6 8 9 11 13 13 12 11 11 10 10 14 12 11 11 10 13 15 13 15 19 14 12 19 18 14 15 18 19 23 22 16 16 16 17 18 18 19 19
13 15 16 17 19 20 20 21 22 23 24 25 25 26 27 28 27 26 26 26 26 25 23 22 21 19 17 15 14 15 15 15 13 12 10 8 9 8 5 5 7 9 9 7 6 5 4 2 4 6 7 8 9 12 14 15 15 13 11 10 13 16 17 15 11 14 17 16 20 21 14 14 19 18 15 11 13 19 23 22 19 20 20 19 20 22 22 24
11 12 13 15 17 18 19 19 20 20 21 22 23 24 25 25 24 24 25 25 25 25 24 23 22 20 18 17 17 16 15 15 14 13 12 10 10 8 3 3 6 8 8 6 8 9 6 4 2 3 7 10 11 14 16 18 18 17 16 15 16 18 20 20 17 17 19 20 20 17 13 15 17 16 15 11 11 14 18 20 22 24 22 21 22 22 23 24
10 10 11 12 14 16 17 17 18 18 19 19 19 21 23 22 21 20 22 23 24 24 23 22 21 20 18 17 16 15 16 17 15 14 13 11 11 8 4 3 6 9 8 8 11 12 11 9 8 9 10 12 13 16 18 20 20 20 19 18 20 20 20 22 22 20 21 22 22 20 16 16 19 18 17 14 14 15 17 19 20 22 22 23 24 25 25 24
8 8 8 10 11 13 15 16 16 17 16 16 16 18 20 20 18 18 20 21 22 23 22 20 20 19 16 16 15 17 18 17 16 15 13 11 10 8 4 6 10 11 10 9 10 11 10 9 9 10 12 14 15 17 19 22 22 22 20 17 17 20 22 23 24 25 24 22 21 21 19 18 19 22 21 18 17 17 18 19 20 22 23 25 24 21 20 20
8 7 7 7 8 10 12 13 14 14 15 15 14 15 18 18 18 18 19 19 20 21 19 17 16 16 15 16 16 17 18 16 15 15 12 10 9 8 8 10 12 11 9 9 10 10 9 9 10 12 14 15 15 15 15 18 19 19 18 13 12 17 22 25 27 29 29 26 22 18 20 20 20 22 23 22 22 22 21 21 22 23 23 27 27 22 20 20
7 6 6 6 6 7 8 10 11 12 13 13 12 13 16 17 18 18 16 16 19 20 17 14 14 14 14 14 14 15 14 13 14 13 11 10 9 9 9 10 9 7 7 9 10 10 10 11 11 13 16 17 16 15 13 14 16 14 13 10 10 15 21 24 28 30 28 25 23 20 20 21 22 23 24 25 26 25 24 23 23 24 25 28 30 29 28 28
7 5 5 5 5 5 6 7 8 9 12 11 11 12 13 15 15 15 13 14 18 18 16 13 13 14 12 12 13 12 10 11 13 13 12 10 9 9 8 8 7 6 7 9 9 10 10 10 12 14 17 18 17 16 15 14 15 12 7 7 7 12 19 23 28 30 25 22 23 22 22 23 24 25 26 27 28 27 27 26 24 25 26 27 27 28 28 29
7 5 5 4 4 4 4 5 6 8 10 9 9 10 11 12 12 12 11 12 15 15 13 13 14 13 11 12 12 8 7 11 12 11 11 10 9 8 8 7 7 7 8 9 9 10 10 9 10 11 14 17 16 14 15 15 14 10 6 4 3 8 14 19 27 33 28 24 25 24 24 26 26 27 28 28 30 30 30 28 26 26 26 27 27 28 30 31
6 5 4 4 3 3 2 3 4 6 7 8 8 8 9 9 10 11 11 10 12 12 12 13 14 13 11 12 9 7 10 12 10 10 11 10 10 8 7 7 7 8 9 10 10 10 11 9 8 9 13 18 17 14 15 16 14 11 8 5 1 4 9 15 24 34 33 27 28 28 28 29 27 27 27 28 30 30 30 30 28 27 27 29 30 32 35 36
5 4 3 3 2 1 2 2 3 4 5 6 7 7 8 8 9 10 10 9 11 12 11 12 13 13 13 11 8 9 12 10 9 13 12 9 7 5 6 7 8 9 10 10 10 10 12 11 10 11 14 17 18 17 16 15 14 11 8 6 2 1 5 11 17 29 36 30 29 32 32 30 28 26 26 27 30 31 32 31 30 29 31 33 34 36 37 38
4 4 3 2 2 1 2 2 3 4 5 5 6 6 7 8 9 9 8 8 10 12 12 12 12 13 13 11 10 12 12 11 11 14 11 7 5 5 7 9 10 11 10 11 11 12 14 14 13 14 15 17 19 18 17 15 14 12 8 7 4 3 1 7 11 20 34 34 31 34 35 33 30 27 26 28 31 34 35 34 32 31 33 34 36 38 38 38
3 3 2 2 2 2 1 1 3 4 5 5 6 7 7 8 8 8 7 8 11 11 12 12 12 12 12 12 12 11 10 11 11 12 10 7 7 9 9 9 9 11 11 11 12 12 13 14 14 15 17 18 18 18 17 15 14 12 10 9 7 6 5 6 9 15 29 36 34 34 36 35 32 29 27 26 27 30 33 34 32 30 30 31 33 35 37 38
2 2 2 3 2 2 1 1 2 4 5 6 6 7 7 7 7 7 7 8 10 10 11 12 12 12 12 12 12 10 9 10 11 11 10 7 6 7 7 6 5 9 11 11 12 13 14 14 14 15 15 15 17 18 17 15 13 12 11 11 11 9 9 9 10 13 23 34 36 34 33 31 29 29 27 25 24 26 28 29 28 27 26 28 29 32 34 36
1 2 2 3 2 2 2 1 2 3 5 6 7 7 7 7 7 6 7 9 10 11 11 12 13 13 12 11 11 11 11 12 11 11 10 7 7 6 7 7 5 7 10 11 12 12 13 13 13 14 13 12 15 16 14 13 13 13 11 10 11 11 10 11 11 12 17 26 32 32 31 29 28 29 29 29 29 28 27 26 24 23 24 25 27 30 32 34
1 1 2 2 2 1 1 1 2 3 4 5 6 7 6 7 7 7 8 10 10 11 12 12 13 13 12 12 12 12 13 12 11 11 10 9 8 8 8 9 8 7 8 9 11 11 11 11 10 11 12 12 13 14 14 15 16 14 12 11 11 10 9 10 11 11 13 17 23 26 28 28 28 29 29 29 27 25 23 22 21 22 23 24 26 28 29 31
1 1 1 1 1 1 1 1 2 3 4 5 6 6 7 7 7 8 9 10 10 11 12 13 14 12 11 12 13 13 14 13 11 10 10 8 7 7 7 8 7 6 6 7 9 9 10 11 10 10 12 12 12 15 16 16 16 15 14 13 13 10 8 9 9 10 12 13 15 18 21 21 21 21 20 19 18 16 17 17 19 20 22 23 24 25 27 28
2 1 1 1 1 1 1 1 2 3 5 5 5 6 7 7 7 8 9 10 11 12 12 13 14 12 12 13 13 14 15 14 12 11 10 8 7 5 6 7 6 5 6 6 7 8 9 10 11 10 12 13 13 13 13 14 16 16 15 14 12 11 10 8 6 7 10 12 12 13 14 13 13 13 12 12 12 12 13 14 16 18 20 21 23 25 27 28
3 2 1 0 0 1 1 0 2 4 5 5 4 5 6 5 6 8 9 11 11 12 13 13 13 13 13 14 15 16 16 16 15 13 11 10 9 7 6 7 7 6 6 6 7 8 9 10 11 10 10 12 12 12 12 14 15 15 14 12 11 12 12 9 5 3 4 7 8 9 10 9 10 10 9 10 11 13 13 14 16 18 19 21 23 25 26 27
4 3 2 1 1 0 1 1 2 4 5 4 4 5 6 4 5 8 10 11 12 12 13 14 14 14 15 16 17 18 17 17 17 16 13 11 10 9 8 8 8 8 8 7 7 8 9 10 10 9 9 10 11 12 12 13 13 11 11 11 11 11 11 10 7 4 2 1 2 4 6 8 8 8 8 10 12 14 15 16 17 19 19 20 21 23 24 26
4 3 3 2 1 0 1 1 2 4 5 3 3 5 5 3 5 8 10 11 12 12 13 13 13 14 15 16 17 18 17 17 17 16 14 12 11 11 10 10 9 9 9 9 9 9 9 10 9 9 9 9 10 12 12 11 11 10 10 11 11 11 10 10 9 7 5 4 4 4 5 6 7 8 8 10 12 15 17 18 19 20 20 20 21 22 22 24
5 3 3 3 1 0 1 2 3 4 5 4 3 5 4 3 6 8 10 11 12 12 12 13 13 14 14 16 17 18 18 18 18 17 15 14 13 12 12 11 10 10 10 10 10 10 10 10 10 9 9 8 9 10 9 9 10 9 8 8 9 9 9 9 9 9 8 7 8 8 8 8 9 10 10 11 14 16 17 19 20 21 21 22 23 23 23 23
6 5 3 3 2 1 0 1 2 4 5 5 4 4 4 4 6 8 9 10 11 12 12 12 13 13 14 16 17 18 19 20 19 17 16 14 14 13 13 12 11 10 11 11 11 11 10 10 9 8 9 9 9 9 7 6 8 7 6 7 8 8 8 7 7 8 7 7 8 9 9 10 11 11 12 13 15 17 18 20 21 22 23 24 25 25 26 26
8 6 5 4 3 2 1 1 2 3 5 6 5 3 3 4 5 7 8 9 10 11 11 11 12 13 14 15 17 18 19 20 19 18 16 15 14 14 14 13 12 11 11 11 11 11 11 11 10 8 9 9 9 9 7 6 6 5 4 7 8 8 8 8 8 8 8 8 8 9 10 11 12 12 12 13 15 18 20 21 23 25 26 27 27 27 28 28
8 7 5 5 4 3 3 2 2 3 4 5 4 3 3 4 5 6 7 8 9 10 10 11 11 12 14 15 16 17 18 18 19 18 16 14 14 14 14 13 12 11 11 11 11 11 11 11 11 9 8 8 9 9 8 7 6 5 5 6 8 8 7 8 9 9 10 10 10 11 11 11 13 13 12 13 15 18 21 23 24 26 29 30 30 29 29 30
9 8 6 5 4 4 4 3 3 3 3 3 3 2 3 4 4 5 7 7 8 8 9 10 11 12 13 14 15 16 16 17 18 18 16 15 14 14 14 13 13 13 13 12 11 11 11 11 11 9 7 7 8 9 10 8 7 7 6 6 7 7 7 7 8 9 10 10 11 12 13 14 15 15 15 15 15 17 20 23 24 26 28 30 31 31 31 31
10 9 7 6 5 5 5 4 3 3 3 3 2 1 2 3 4 4 6 7 7 8 9 10 11 12 13 14 15 15 16 17 17 18 17 16 15 14 13 13 13 13 12 12 12 12 11 12 12 10 9 9 9 10 11 10 9 9 8 7 8 9 8 8 8 9 10 10 11 12 13 14 16 17 17 17 17 17 19 21 23 25 28 30 31 32 32 32
10 9 7 5 6 6 5 4 3 2 3 3 2 1 1 2 3 4 5 6 6 8 9 9 11 11 13 14 14 15 15 16 16 16 16 16 16 14 13 12 12 12 12 12 12 12 11 12 13 13 12 12 11 11 11 10 10 10 9 9 9 9 10 10 11 11 12 12 13 13 14 14 15 17 19 19 20 20 22 23 24 26 29 30 30 31 32 32
10 9 7 6 7 7 6 5 5 4 3 3 2 0 1 2 2 3 4 5 6 7 8 9 11 12 13 13 14 14 15 16 16 16 16 16 16 15 14 13 12 12 12 12 12 12 11 12 12 13 12 12 13 13 12 12 11 11 10 10 10 10 10 11 12 13 14 14 14 14 14 15 15 16 18 20 21 22 23 25 26 28 29 29 29 29 30 31
12 11 10 9 8 8 8 7 6 5 4 3 2 1 1 1 2 3 4 5 6 7 8 10 11 12 13 13 14 15 15 16 16 16 16 16 15 14 13 12 12 11 11 11 11 12 12 13 13 13 13 13 13 14 13 13 12 11 9 9 10 11 11 11 11 13 14 15 16 16 16 17 17 17 19 20 20 21 22 23 26 28 30 30 29 29 29 31
14 13 12 11 10 10 9 8 6 5 5 4 3 3 2 2 3 4 5 6 7 8 9 10 11 12 13 14 15 15 15 16 16 15 15 15 15 14 13 12 11 11 11 11 11 12 13 13 14 15 14 14 15 15 13 12 11 10 9 9 10 11 11 11 11 12 13 15 16 17 17 18 18 20 21 21 21 20 21 22 24 26 28 29 29 29 29 30
16 15 14 13 12 11 10 8 7 7 7 6 5 5 4 4 5 5 6 7 8 9 10 10 12 12 13 14 15 15 16 16 16 16 16 16 15 15 15 13 12 12 12 12 12 12 12 12 13 14 14 13 13 13 12 11 11 11 9 10 12 12 12 12 12 12 13 15 17 18 18 18 19 21 22 22 22 22 23 24 24 26 28 29 30 29 29 30
16 16 15 14 13 13 12 10 10 10 9 8 8 7 6 6 6 6 7 8 9 11 11 11 12 13 14 15 15 16 16 16 16 16 16 16 16 16 16 15 14 13 12 13 13 12 12 12 12 13 12 12 11 11 11 12 12 11 10 11 12 12 12 13 13 12 12 14 15 17 17 18 19 21 23 23 23 24 25 25 26 28 30 30 30 29 29 29
16 15 15 14 15 15 14 12 12 11 10 10 10 8 7 7 8 8 8 9 11 12 12 12 14 14 14 15 16 16 17 17 17 17 16 16 15 16 16 15 15 14 13 13 13 13 13 13 13 13 12 12 12 11 11 12 12 11 11 11 11 12 13 14 14 13 14 15 16 17 18 19 19 20 22 24 24 24 25 25 25 27 29 30 29 29 29 29
Wind_Direction
355 359 2 4 6 6 5 5 4 4 4 4 3 2 1 2 0 360 3 7 12 20 30 50 77 104 120 127 133 137 141 144 146 150 153 156 156 156 162 164 165 168 169 169 169 172 171 168 169 169 170 168 160 138 123 151 174 168 151 150 151 143 134 125 106 87 76 115 221 243 263 272 276 278 276 273 277 281 270 262 258 254 276 290 295 295 296 309
1 4 6 8 9 8 8 8 8 7 7 7 9 9 9 9 8 8 12 18 25 35 49 64 80 94 106 116 123 128 131 134 137 140 142 146 145 145 152 153 156 159 159 162 162 168 167 167 172 167 164 159 149 132 128 154 161 152 150 154 154 143 138 136 119 105 103 257 259 261 270 276 278 276 275 274 275 274 271 270 264 263 282 288 292 297 301 316
6 8 11 12 11 12 12 12 13 12 10 11 13 16 16 17 16 18 24 30 40 51 63 73 83 92 101 109 116 120 124 127 130 131 133 137 135 136 144 146 149 149 150 153 153 161 162 164 170 168 162 150 146 138 139 149 147 144 147 148 147 141 144 148 128 116 123 237 265 270 272 277 280 274 267 260 253 256 274 276 269 268 275 279 291 309 311 319
10 13 15 15 14 15 16 16 17 16 14 15 18 21 23 24 27 33 40 47 54 61 70 78 86 93 100 106 112 116 120 123 125 126 128 129 128 132 140 141 142 142 143 147 148 150 148 153 164 163 150 141 147 147 149 153 149 149 147 146 150 147 153 160 139 131 141 190 241 265 266 270 277 270 250 225 202 180 225 261 276 274 262 214 308 315 318 334
14 17 19 18 17 18 19 20 21 19 18 20 23 28 31 34 41 50 57 62 65 70 75 81 87 94 100 106 111 115 118 120 121 123 123 123 124 130 136 137 137 137 140 144 146 138 128 145 159 151 140 138 151 156 159 163 162 159 155 161 163 158 166 173 164 159 166 184 213 241 253 256 267 277 265 226 196 185 202 241 283 260 216 82 62 345 340 0
18 21 22 21 21 22 22 23 24 22 22 25 29 34 39 44 52 62 69 71 72 74 79 86 91 96 102 106 111 114 117 119 119 121 121 121 123 127 132 133 133 135 139 146 145 130 123 160 168 158 149 150 159 162 167 170 171 166 166 180 177 176 183 181 197 195 187 196 212 225 239 246 260 280 276 246 222 221 218 232 254 220 198 15 353 9 25 26
22 25 25 25 25 25 25 26 27 27 26 30 34 40 45 51 57 66 73 77 78 80 83 89 94 99 103 107 111 115 117 118 119 122 122 122 124 127 129 127 127 131 137 144 139 130 138 168 177 172 162 163 166 167 173 175 175 170 174 188 185 200 215 194 205 210 201 210 221 227 237 244 260 273 268 249 245 245 241 262 285 263 297 341 348 14 40 62
26 28 28 28 28 28 28 28 30 31 31 34 39 44 51 56 60 65 72 79 84 87 89 93 97 101 105 108 112 115 117 118 120 122 122 123 125 125 124 123 125 128 134 140 135 134 144 161 179 180 172 174 175 176 176 175 179 179 181 190 193 212 229 212 202 206 200 212 223 228 235 244 256 263 261 265 268 262 260 310 319 295 297 313 343 357 4 51
29 31 31 31 32 31 30 31 33 35 37 40 43 48 54 60 64 67 70 77 84 89 92 95 98 102 105 109 112 114 117 120 121 121 121 122 121 118 116 117 119 119 126 134 126 117 121 139 179 179 179 185 185 188 181 175 181 189 191 193 202 221 239 253 260 239 202 207 221 225 230 236 247 254 260 270 273 266 254 297 313 303 322 321 304 303 325 7
31 33 34 34 35 35 34 34 36 39 42 45 49 52 57 63 67 69 71 75 81 88 93 96 99 101 105 108 110 113 116 119 119 118 119 121 120 118 116 114 107 97 98 118 114 100 103 111 116 160 192 197 191 190 185 183 188 195 202 200 207 228 256 281 284 269 237 224 220 217 221 226 235 247 259 264 267 265 254 275 298 307 5 337 292 269 283 60
33 35 36 37 39 40 38 37 40 44 47 51 55 58 61 66 70 72 73 74 78 84 89 94 98 101 104 105 107 111 114 117 117 118 119 120 121 120 118 113 108 102 89 78 89 91 104 117 116 122 114 120 166 176 179 177 172 179 197 210 214 242 273 268 271 271 255 245 231 219 217 220 224 237 256 261 267 275 272 282 294 302 339 333 290 265 308 351
35 37 38 40 42 44 44 42 44 47 51 55 58 62 66 70 74 76 78 79 79 81 84 90 94 98 100 101 104 107 109 110 111 113 114 114 113 111 112 113 115 114 102 89 94 98 117 142 143 126 99 92 125 144 141 137 148 160 167 161 109 80 41 3 351 304 275 262 248 226 215 221 223 231 251 259 270 286 299 312 301 305 316 316 298 307 345 337
37 38 40 42 45 48 49 48 48 51 54 58 61 65 68 73 77 80 83 84 85 85 86 90 93 96 97 99 103 105 106 108 107 106 106 106 106 108 112 116 117 117 118 126 138 136 146 157 149 129 113 108 120 135 145 154 167 166 155 134 110 96 72 58 70 20 313 288 287 257 216 214 211 219 246 260 276 304 329 329 314 319 317 309 302 311 328 328
38 40 41 44 47 51 53 53 53 55 57 62 65 68 71 74 78 81 84 86 89 90 90 92 94 96 97 100 103 102 103 106 108 106 101 98 100 108 112 112 114 119 128 136 142 140 145 156 149 140 135 134 136 158 173 178 181 172 157 144 131 126 117 117 139 106 11 5 19 7 322 180 179 197 235 255 280 313 331 325 321 327 319 312 307 308 311 311
39 41 43 45 49 53 57 58 58 59 61 64 68 71 74 76 78 81 84 87 90 92 93 93 94 96 99 101 102 102 101 101 105 105 104 103 105 109 108 105 107 111 120 129 135 131 133 150 154 150 154 161 164 182 194 197 198 185 163 160 159 153 138 120 140 144 104 48 31 32 70 153 162 179 211 235 264 295 307 304 317 324 314 311 315 317 312 303
40 42 43 46 49 53 58 61 62 63 65 67 69 73 76 79 82 84 86 88 89 91 92 93 95 99 99 100 102 101 101 98 99 104 110 116 118 118 113 106 104 108 116 123 128 125 135 154 158 159 171 188 188 201 214 216 214 199 176 176 179 166 134 97 127 154 125 66 20 52 108 171 172 181 211 236 246 253 276 283 296 308 303 307 314 314 306 293
42 42 44 47 50 53 57 61 63 65 68 71 72 74 76 79 83 86 87 87 88 90 91 95 99 99 96 98 100 100 100 100 102 109 113 115 117 119 116 110 109 114 116 119 123 117 131 156 182 187 198 227 226 225 229 232 230 220 201 188 185 176 153 126 133 141 139 144 18 87 177 214 194 193 217 239 246 247 259 266 277 282 283 299 308 308 305 298
43 44 44 47 50 53 56 60 63 66 69 73 75 77 78 79 80 84 87 87 89 90 93 95 96 95 95 97 98 99 103 104 107 108 107 112 118 119 116 116 117 112 102 104 123 116 133 181 238 227 214 227 237 241 241 243 242 238 223 195 181 175 182 171 155 153 159 163 162 181 218 217 189 191 208 222 236 252 256 252 255 257 269 295 304 308 314 313
44 45 45 47 49 52 55 58 63 66 68 71 75 78 78 79 81 82 85 87 88 89 91 93 93 92 93 96 97 100 102 103 105 103 100 110 113 110 111 121 128 125 122 126 132 132 136 190 233 236 233 234 242 251 257 263 259 255 249 209 183 181 204 206 183 175 172 170 185 199 219 205 186 190 197 209 216 228 244 243 242 253 270 289 292 297 304 307
45 45 46 48 49 52 54 56 60 64 68 70 73 77 77 79 82 84 84 85 85 86 86 86 86 86 88 94 95 94 96 97 99 100 100 104 102 98 95 117 132 132 141 141 121 112 105 128 197 222 248 264 270 275 280 283 278 268 258 232 203 199 214 222 206 188 184 187 194 199 217 207 192 194 193 206 221 223 235 238 246 262 269 277 281 288 297 302
47 44 46 49 50 52 53 55 58 61 66 68 72 77 77 78 83 84 85 86 85 84 83 81 81 82 85 87 86 87 92 96 97 99 101 99 94 93 102 147 136 124 129 114 74 65 59 45 4 300 298 300 299 294 291 286 280 272 256 240 227 220 221 220 206 196 196 196 194 196 214 206 190 196 203 221 246 242 243 246 256 264 265 272 277 282 293 297
50 45 44 48 52 53 53 55 58 60 63 67 73 78 78 78 81 82 83 84 83 81 80 80 80 79 81 84 89 94 94 94 95 95 94 93 93 104 150 150 104 91 83 64 50 46 40 23 359 341 322 314 311 304 301 295 287 281 269 253 240 230 227 224 209 201 206 198 187 187 199 204 196 200 214 229 243 249 254 257 261 262 262 267 270 275 281 282
53 48 43 45 50 56 57 55 55 57 63 67 70 75 78 79 80 78 77 78 80 79 76 75 76 77 78 80 85 88 87 87 90 89 88 92 95 105 108 53 48 52 53 46 40 36 32 19 357 343 328 321 319 313 308 301 296 293 287 272 250 233 225 229 221 208 206 201 191 186 187 202 208 205 211 223 233 240 250 256 261 264 264 264 264 266 267 271
55 51 45 42 44 52 59 60 58 56 59 60 62 68 73 76 76 71 69 72 75 74 73 72 73 75 71 67 68 72 77 81 84 86 85 84 82 78 62 38 31 35 34 29 28 19 11 8 354 339 330 329 330 327 314 303 302 302 297 282 252 231 220 225 226 215 206 204 206 201 194 203 213 210 210 218 226 231 241 251 257 262 262 260 263 264 267 279
55 54 50 44 41 44 51 57 60 60 59 55 54 58 63 68 69 66 65 67 69 69 69 68 68 67 62 61 62 62 68 74 76 77 74 69 62 56 53 45 35 29 18 12 13 6 359 359 353 341 336 338 345 346 335 322 322 320 306 280 240 226 219 216 218 216 210 209 213 211 207 211 214 215 217 220 223 228 236 245 249 254 257 259 266 270 276 284
53 58 55 46 42 42 40 45 47 55 61 55 47 50 58 64 65 67 65 62 64 65 64 63 62 60 56 56 58 55 60 67 66 65 62 59 55 47 42 38 27 14 8 5 4 2 356 352 350 343 333 336 348 349 343 342 341 338 322 288 239 219 220 213 209 211 211 211 212 208 208 217 220 222 227 226 225 228 235 242 246 249 253 257 262 268 274 279
50 59 62 52 44 40 36 43 44 50 60 58 48 47 57 63 63 64 63 61 66 68 64 61 58 56 50 47 48 47 55 57 55 57 54 49 49 45 37 26 13 5 4 2 3 3 359 354 347 333 326 339 355 354 349 358 359 353 349 322 251 209 217 213 206 206 207 206 207 207 210 218 224 225 227 226 225 230 237 243 246 248 250 253 255 261 267 272
47 56 67 62 52 44 32 46 53 52 56 56 51 45 51 57 57 57 56 58 66 67 62 57 53 50 46 41 35 37 47 45 44 48 46 42 36 29 32 32 18 17 20 13 7 5 4 2 349 335 337 349 0 6 3 5 6 5 9 4 306 211 213 212 207 203 204 206 205 209 212 213 218 223 224 224 227 234 241 245 248 250 252 254 258 262 265 270
48 54 65 68 61 51 30 39 48 51 52 49 44 41 43 47 47 47 47 52 59 59 55 51 47 44 44 39 27 33 43 37 38 45 42 42 35 17 25 32 22 21 30 26 15 12 14 13 8 358 350 351 2 14 13 7 8 12 15 15 13 237 215 211 209 202 201 206 207 208 211 209 210 216 221 227 232 238 243 246 250 253 256 259 262 265 267 271
52 54 57 62 59 40 25 33 40 44 49 43 36 33 35 39 42 39 38 49 56 54 50 46 42 40 39 38 32 32 31 26 43 57 51 36 26 24 33 29 15 12 24 26 19 18 20 19 14 6 0 360 7 15 15 13 14 19 26 25 29 18 265 201 199 195 197 205 209 207 209 210 212 217 225 233 238 242 245 247 251 257 262 265 267 268 269 270
56 53 48 45 49 47 31 41 44 42 48 46 39 37 31 31 40 37 30 45 54 49 45 42 39 36 31 31 31 29 22 17 38 62 59 34 15 18 28 25 2 357 11 22 18 14 17 20 14 9 9 5 6 15 18 20 20 24 40 42 45 55 70 151 170 177 190 201 208 207 208 213 219 224 231 239 243 245 245 246 251 258 264 268 270 270 270 269
57 47 45 40 43 39 15 41 58 49 51 50 48 47 39 34 40 38 28 43 53 47 41 36 31 30 29 27 25 24 21 17 28 48 54 51 36 18 19 30 1 345 1 17 16 11 11 16 14 14 15 3 2 15 20 25 30 33 48 55 54 65 83 121 151 163 183 199 208 209 210 213 218 224 231 242 250 249 248 249 253 259 265 269 270 270 270 271
68 49 51 42 42 34 8 35 74 66 58 55 56 57 53 48 45 42 40 46 48 44 40 36 29 26 25 24 23 22 23 21 22 34 40 42 43 26 14 34 32 357 359 7 10 11 9 8 5 8 16 9 8 19 23 31 42 42 46 55 55 60 79 108 137 153 174 197 208 215 219 221 226 232 238 248 255 255 255 255 257 262 267 271 272 271 271 273
121 72 72 52 39 18 348 34 78 82 71 63 63 63 63 60 53 47 48 47 44 42 41 39 35 26 19 23 27 25 29 29 20 23 29 27 25 16 5 17 26 14 5 358 1 7 5 4 0 359 8 12 17 25 29 35 45 47 46 55 61 59 67 91 120 142 161 184 200 213 222 227 233 239 243 250 255 257 256 257 261 265 268 269 271 272 273 275
162 116 110 87 61 20 338 33 85 91 79 68 68 69 64 60 57 52 51 48 44 42 42 41 39 33 25 29 31 28 31 34 27 21 22 26 26 10 360 10 18 19 15 359 0 4 356 2 12 4 1 6 19 29 29 32 41 44 44 49 59 67 72 82 107 132 150 168 183 199 211 221 229 236 243 251 257 259 259 260 262 265 268 270 274 277 278 280
170 151 138 112 103 100 2 37 96 96 88 79 72 71 64 59 61 61 56 52 47 43 44 44 42 40 38 36 34 32 27 26 29 25 17 25 39 24 7 17 24 25 21 1 0 3 349 359 14 9 359 1 18 36 37 36 41 42 40 38 41 56 70 75 93 122 142 161 174 187 197 208 221 233 244 256 264 265 263 263 266 269 273 278 279 280 282 284
177 176 151 139 247 102 75 142 114 106 104 98 91 82 73 66 70 70 63 57 52 45 44 47 46 43 40 36 34 33 25 18 21 24 22 24 33 34 25 29 31 26 24 10 359 357 350 2 15 7 357 359 12 35 47 44 41 37 37 37 32 38 50 60 70 86 133 160 175 188 200 216 232 245 258 266 270 269 267 270 276 280 282 282 280 280 282 284
185 185 165 182 252 122 108 157 133 119 111 107 107 93 81 75 75 72 66 60 56 49 45 47 47 42 38 34 33 33 26 17 16 21 30 32 30 35 37 37 31 20 21 17 3 358 357 8 17 3 358 3 7 22 40 49 50 39 31 36 37 36 36 40 47 43 39 106 205 218 232 248 260 269 275 275 275 280 286 291 293 293 292 289 285 283 283 284
194 195 185 191 224 149 106 126 144 131 116 114 110 91 84 83 76 69 65 61 58 54 49 48 47 42 38 33 32 33 29 23 21 23 32 38 35 37 39 40 34 19 20 17 4 3 1 5 12 3 2 8 4 13 27 36 46 43 31 31 34 35 33 28 26 24 19 6 342 320 301 297 306 309 300 293 296 301 306 308 306 305 304 302 299 295 291 288
197 201 199 194 198 65 85 153 158 141 125 122 109 96 95 89 73 64 61 59 57 55 50 46 45 40 37 33 31 32 30 29 30 29 31 35 37 37 35 37 33 18 17 14 5 6 1 2 11 4 5 11 3 11 21 23 34 33 20 23 28 28 30 24 13 10 8 1 352 343 332 326 331 334 328 321 318 316 314 313 311 312 313 312 310 307 304 300
196 196 196 197 192 122 130 191 152 135 131 122 110 116 119 94 71 63 59 55 54 54 48 41 40 36 33 32 30 30 29 30 32 32 32 33 34 36 33 32 29 19 16 12 7 5 357 1 13 6 6 12 1 5 15 17 35 35 1 4 19 20 21 15 4 1 358 354 351 344 335 329 332 341 342 334 326 319 315 314 313 314 315 313 312 312 311 310
199 195 188 187 189 172 176 167 136 145 142 125 119 139 123 85 67 61 58 51 47 49 44 37 34 31 29 29 28 28 28 29 30 30 30 30 31 34 32 30 26 21 18 14 8 3 356 3 17 11 7 7 351 352 7 14 31 38 353 349 4 11 10 1 352 350 346 343 342 337 333 327 325 332 336 330 323 316 313 313 314 316 315 313 311 312 311 312
205 202 194 182 184 198 191 167 163 158 130 121 134 144 103 76 63 58 55 49 43 41 39 34 29 26 24 24 26 26 25 27 29 27 26 27 27 29 28 27 24 21 22 18 9 3 360 7 18 14 6 358 341 345 4 13 15 18 5 352 353 359 359 345 338 338 336 336 333 328 328 324 321 326 327 322 318 313 310 311 313 313 311 310 310 311 311 313
207 205 206 192 190 212 212 199 197 163 126 136 161 135 93 74 62 54 49 45 39 34 32 29 25 22 20 19 21 21 21 24 26 24 22 22 23 24 23 21 20 18 19 17 11 6 4 8 15 16 6 352 340 345 359 8 6 3 4 353 343 347 347 334 326 322 322 324 323 321 324 323 321 324 323 318 313 306 303 304 307 308 307 308 310 312 313 314
212 208 210 199 195 217 223 216 216 184 157 166 165 100 82 70 53 46 43 37 32 27 24 23 20 18 17 16 15 14 16 21 22 20 18 17 17 19 19 17 16 15 14 11 9 9 6 3 9 16 13 1 353 352 356 359 358 355 355 347 340 341 338 329 324 321 321 323 322 322 324 324 322 322 319 315 311 306 305 307 309 309 309 310 312 314 315 315
219 218 219 208 202 221 229 223 224 209 183 176 160 100 70 58 39 33 32 26 21 19 16 15 14 13 13 12 9 7 10 15 17 16 15 15 14 12 11 11 11 12 10 7 8 10 6 3 7 12 10 3 358 359 359 356 351 350 349 344 342 339 333 328 327 329 333 332 328 326 324 322 322 320 316 316 316 317 319 318 316 313 311 311 313 314 315 315
222 220 219 214 213 222 227 224 223 221 211 198 186 178 46 36 20 19 18 11 11 10 7 7 7 6 7 6 4 3 5 8 9 10 10 10 10 8 4 3 4 5 5 3 3 5 5 6 8 10 7 1 358 1 3 357 352 352 348 343 343 339 335 332 328 330 333 331 328 329 329 327 325 319 316 317 320 323 323 319 316 312 310 310 312 314 315 315
223 221 217 214 215 219 221 224 227 230 233 233 233 246 292 333 348 357 355 355 359 357 358 360 359 359 360 359 358 359 0 2 2 2 2 1 2 2 1 1 358 357 1 0 356 0 5 6 6 8 7 0 360 4 3 356 350 348 345 343 342 341 340 338 331 329 329 327 327 332 333 332 329 323 320 320 323 324 321 316 313 311 311 313 313 314 316 315
220 221 221 218 216 218 224 231 238 243 247 254 261 269 282 299 316 330 335 340 343 343 347 350 349 350 351 351 352 352 353 354 354 353 353 352 352 352 355 359 355 350 355 358 358 0 3 2 3 6 6 1 359 1 358 352 347 345 346 344 342 342 344 341 337 335 331 326 327 332 334 332 328 324 324 327 327 324 320 316 314 312 313 314 315 316 317 316
219 219 222 222 221 223 228 234 239 244 249 255 263 269 278 292 305 314 321 327 329 329 335 339 339 341 342 343 345 345 345 346 345 345 346 346 345 345 346 350 351 349 351 355 358 358 356 359 1 3 4 2 357 352 349 349 349 349 350 347 343 344 343 341 345 345 336 328 329 333 334 330 326 325 327 329 329 327 325 324 322 319 317 317 320 322 322 320
224 223 224 226 226 228 229 229 232 238 244 249 256 264 274 284 292 299 307 316 316 316 324 329 329 331 334 334 336 336 337 338 338 339 340 340 341 340 338 340 344 348 349 350 352 350 350 356 360 359 1 1 355 348 347 349 350 351 351 347 343 340 337 342 351 347 333 329 332 334 332 330 328 327 327 328 331 330 330 330 327 323 322 324 326 326 325 324
228 226 226 228 230 232 232 231 233 237 241 246 253 262 270 276 283 291 300 305 304 308 317 320 319 322 326 326 328 329 330 331 332 334 335 336 338 336 333 333 336 342 346 346 344 345 347 351 353 354 357 358 356 353 348 347 350 351 350 349 344 339 337 345 352 346 337 338 340 338 336 335 332 328 327 330 332 332 333 332 328 324 325 328 329 328 327 328